Location: Waldport
(44.4270°N, 124.0680°W)
Time: 00:42:32
(UTC-07:00)

Amateur Radio Satellites - All Passes

Search period start: 23 April 2014 00:12
Search period end: 24 April 2014 00:12
Location: Waldport, 44.4270°N, 124.0680°W

Satellite Date Start Highest point End Downlink Frequencies (MHz)
Time Altitude Azimuth
Sapphire 23 Apr 00:57:08 01:02:33 76° 302° (WNW) 01:08:00 437.095 MHz 1200 baud AX-25 AFSK
SO-50 23 Apr 01:19:12 01:22:11 17° 249° (WSW) 01:25:12 436.795 FM
OPAL 23 Apr 01:19:43 01:21:38 12° 53° (NE) 01:23:34 ?
UOSAT-12 23 Apr 01:38:52 01:43:34 61° 52° (NE) 01:48:13 437.025 FM, 437.400 FM
PCSat 23 Apr 01:42:26 01:47:22 35° 312° (NW) 01:52:20 145.825 MHz
KITSAT 1 23 Apr 02:03:12 02:10:29 38° 109° (ESE) 02:17:47 435.175 FM
Uribyol 2 23 Apr 02:03:17 02:05:26 13° 88° (E) 02:07:35 436.500 FM
AO-Echo 23 Apr 02:22:15 02:24:28 13° 89° (E) 02:26:39 ?
Sapphire 23 Apr 02:43:27 02:46:55 17° 324° (NW) 02:50:24 437.095 MHz 1200 baud AX-25 AFSK
AO-27 23 Apr 02:43:44 02:48:14 29° 95° (E) 02:52:42 436.795 MHz FM
Oscar 19 23 Apr 02:48:54 02:54:04 60° 101° (E) 02:59:11 437.125 CW, 437.150 USB
ITAMSAT 1 23 Apr 02:53:15 02:57:58 35° 97° (E) 03:02:40 435.822 SSB
OPAL 23 Apr 02:54:36 02:59:39 77° 71° (ENE) 03:04:48 ?
Oscar 16 23 Apr 02:57:52 03:03:06 77° 103° (ESE) 03:08:18 437.025 USB, Beacon 2401.1428
Gurwin Techsat 1B 23 Apr 02:59:47 03:02:18 13° 88° (E) 03:04:49 435.225 FM
UOSAT-12 23 Apr 03:20:03 03:23:16 18° 249° (WSW) 03:26:28 437.025 FM, 437.400 FM
Uribyol 2 23 Apr 03:40:22 03:45:35 85° 286° (WNW) 03:50:46 436.500 FM
TMSAT-1 23 Apr 03:44:02 03:48:20 25° 93° (E) 03:52:37 436.925 FM
KITSAT 1 23 Apr 03:57:39 04:05:37 57° 310° (NW) 04:13:37 435.175 FM
AO-Echo 23 Apr 03:59:03 04:03:48 70° 286° (WNW) 04:08:28 ?
Uosat F 23 Apr 04:21:47 04:25:18 19° 92° (E) 04:28:49 435.120 FM
AO-27 23 Apr 04:23:03 04:27:49 38° 293° (WNW) 04:32:34 436.795 MHz FM
Oscar 19 23 Apr 04:29:14 04:32:58 20° 299° (WNW) 04:36:41 437.125 CW, 437.150 USB
ITAMSAT 1 23 Apr 04:32:50 04:37:24 32° 294° (WNW) 04:41:57 435.822 SSB
AO-7 23 Apr 04:34:02 04:40:19 23° 91° (E) 04:46:32 29.400 - 29.500 MHz
OPAL 23 Apr 04:36:32 04:39:07 14° 269° (W) 04:41:45 ?
Gurwin Techsat 1B 23 Apr 04:37:36 04:42:56 82° 286° (WNW) 04:48:14 435.225 FM
Oscar 16 23 Apr 04:38:42 04:41:50 16° 301° (WNW) 04:44:57 437.025 USB, Beacon 2401.1428
JAS-1B 23 Apr 04:43:05 04:48:25 40° 98° (E) 04:54:01 435.800 - 435.900 CW/SSB
AO-40 23 Apr 04:49:31 10:01:30 33° 181° (S) 15:30:53 Beacon 2401.320
RS-15 23 Apr 05:07:30 05:14:58 21° 100° (E) 05:22:15 29.354 - 29.394 USB, Beacon 29.352 USB
Uribyol 2 23 Apr 05:21:58 05:24:16 13° 304° (WNW) 05:26:34 436.500 FM
TMSAT-1 23 Apr 05:23:26 05:28:28 46° 291° (WNW) 05:33:29 436.925 FM
MaSat-1 23 Apr 05:24:18 05:25:35 12° 53° (NE) 05:26:57 437.345 MHz
STRAND 1 23 Apr 05:41:26 05:44:43 18° 60° (ENE) 05:48:00 ?
KITSAT 1 23 Apr 05:57:08 06:03:00 21° 336° (NNW) 06:08:52 435.175 FM
Uosat F 23 Apr 05:59:33 06:04:26 55° 289° (WNW) 06:09:18 435.120 FM
Gurwin Techsat 1B 23 Apr 06:19:44 06:22:04 13° 304° (NW) 06:24:24 435.225 FM
AO-7 23 Apr 06:25:37 06:33:58 81° 291° (WNW) 06:42:18 29.400 - 29.500 MHz
JAS-1B 23 Apr 06:34:12 06:39:02 30° 296° (WNW) 06:44:01 435.800 - 435.900 CW/SSB
MaSat-1 23 Apr 07:01:07 07:04:02 42° 245° (WSW) 07:07:28 437.345 MHz
PCSat 23 Apr 07:03:07 07:05:18 12° 30° (NNE) 07:07:29 145.825 MHz
JAS-2 23 Apr 07:06:17 07:09:42 16° 91° (E) 07:13:18 435.800 - 435.900 CW/SSB, 435.910 FM
RS-15 23 Apr 07:14:16 07:25:34 81° 121° (ESE) 07:36:33 29.354 - 29.394 USB, Beacon 29.352 USB
STRAND 1 23 Apr 07:18:16 07:23:22 69° 257° (WSW) 07:28:28 ?
Hamsat 23 Apr 07:41:00 07:45:24 89° 283° (WNW) 07:49:46 145.90 MHz
SO-67 23 Apr 07:55:03 07:57:52 22° 94° (E) 08:00:39 435.3500 MHz FM
KITSAT 1 23 Apr 07:57:31 08:02:07 16° 7° (N) 08:06:43 435.175 FM
Sapphire 23 Apr 08:00:45 08:05:07 24° 42° (NE) 08:09:27 437.095 MHz 1200 baud AX-25 AFSK
AO-7 23 Apr 08:19:45 08:25:35 22° 312° (NW) 08:31:25 29.400 - 29.500 MHz
PCSat 23 Apr 08:44:51 08:50:07 48° 52° (NE) 08:55:20 145.825 MHz
JAS-2 23 Apr 08:49:48 08:55:15 74° 286° (WNW) 09:01:19 435.800 - 435.900 CW/SSB, 435.910 FM
Oscar 10/S400 23 Apr 08:49:57 09:57:23 63° 192° (SSW) 18:17:16 145.825 - 145.975 CW/USB, Beacon 145.810 USB
Hamsat 23 Apr 09:19:52 09:20:41 10° 301° (WNW) 09:21:29 145.90 MHz
SO-67 23 Apr 09:28:08 09:30:57 23° 291° (WNW) 09:33:46 435.3500 MHz FM
RS-15 23 Apr 09:28:57 09:39:07 39° 328° (NNW) 09:49:10 29.354 - 29.394 USB, Beacon 29.352 USB
Sapphire 23 Apr 09:43:38 09:49:02 67° 243° (WSW) 09:54:23 437.095 MHz 1200 baud AX-25 AFSK
KITSAT 1 23 Apr 09:53:42 10:00:41 30° 36° (NE) 10:07:37 435.175 FM
HO-68 23 Apr 10:07:25 10:14:20 48° 100° (E) 10:21:12 435.675 MHz FM
Saudisat 1A 23 Apr 10:20:22 10:24:32 39° 118° (ESE) 10:28:42 436.775 MHz
PCSat 23 Apr 10:28:45 10:33:17 28° 251° (WSW) 10:37:47 145.825 MHz
JAS-2 23 Apr 10:37:46 10:39:36 12° 304° (NW) 10:41:29 435.800 - 435.900 CW/SSB, 435.910 FM
Oscar 11 23 Apr 11:06:13 11:10:36 72° 102° (ESE) 11:14:57 145.825 FM, Beacon 2401.500 USB
FUNcube-1 23 Apr 11:09:26 11:13:02 26° 95° (E) 11:16:42 145.950 - 145.970 MHz USB
RS-15 23 Apr 11:46:54 11:55:35 26° 2° (N) 12:04:16 29.354 - 29.394 USB, Beacon 29.352 USB
KITSAT 1 23 Apr 11:48:56 11:57:05 85° 239° (WSW) 12:05:09 435.175 FM
HO-68 23 Apr 11:55:25 12:01:53 38° 299° (WNW) 12:08:21 435.675 MHz FM
Saudisat 1A 23 Apr 12:00:19 12:04:14 29° 316° (NW) 12:08:10 436.775 MHz
Oscar 19 23 Apr 12:31:06 12:33:58 15° 58° (ENE) 12:36:50 437.125 CW, 437.150 USB
Oscar 16 23 Apr 12:39:23 12:42:54 19° 60° (ENE) 12:46:26 437.025 USB, Beacon 2401.1428
Oscar 11 23 Apr 12:44:12 12:46:13 13° 299° (WNW) 12:48:14 145.825 FM, Beacon 2401.500 USB
FUNcube-1 23 Apr 12:45:41 12:49:28 31° 291° (WNW) 12:53:19 145.950 - 145.970 MHz USB
Uribyol 2 23 Apr 13:22:02 13:26:06 24° 63° (ENE) 13:30:11 436.500 FM
AO-Echo 23 Apr 13:35:55 13:39:59 24° 64° (ENE) 13:43:59 ?
KITSAT 1 23 Apr 13:46:09 13:51:18 19° 259° (W) 13:56:26 435.175 FM
SO-50 23 Apr 13:56:44 13:58:49 13° 109° (ESE) 14:00:54 436.795 FM
RS-15 23 Apr 14:01:35 14:11:50 42° 36° (NE) 14:22:11 29.354 - 29.394 USB, Beacon 29.352 USB
AO-27 23 Apr 14:03:25 14:08:26 52° 70° (ENE) 14:13:28 436.795 MHz FM
Oscar 19 23 Apr 14:07:28 14:12:37 82° 256° (WSW) 14:17:50 437.125 CW, 437.150 USB
ITAMSAT 1 23 Apr 14:12:50 14:17:56 62° 72° (ENE) 14:23:03 435.822 SSB
Oscar 16 23 Apr 14:16:40 14:21:45 64° 258° (WSW) 14:26:55 437.025 USB, Beacon 2401.1428
ISS 23 Apr 14:17:08 14:20:14 37° 141° (SE) 14:23:21 145.800 FM
Gurwin Techsat 1B 23 Apr 14:21:49 14:26:09 26° 64° (ENE) 14:30:30 435.225 FM
Uribyol 2 23 Apr 15:00:20 15:05:18 48° 260° (W) 15:10:18 436.500 FM
OPAL 23 Apr 15:04:00 15:07:27 18° 93° (E) 15:10:53 ?
TMSAT-1 23 Apr 15:06:16 15:11:16 45° 69° (ENE) 15:16:18 436.925 FM
AO-Echo 23 Apr 15:13:30 15:18:30 47° 261° (W) 15:23:23 ?
JAS-1B 23 Apr 15:29:23 15:36:32 47° 68° (ENE) 15:42:37 435.800 - 435.900 CW/SSB
SO-50 23 Apr 15:34:17 15:38:45 76° 306° (NW) 15:43:18 436.795 FM
AO-7 23 Apr 15:34:41 15:42:07 39° 58° (ENE) 15:49:33 29.400 - 29.500 MHz
Uosat F 23 Apr 15:36:25 15:40:51 32° 66° (ENE) 15:45:17 435.120 FM
AO-27 23 Apr 15:44:23 15:48:15 21° 268° (W) 15:52:09 436.795 MHz FM
Oscar 19 23 Apr 15:52:16 15:52:46 10° 274° (W) 15:53:17 437.125 CW, 437.150 USB
ISS 23 Apr 15:53:46 15:56:57 40° 339° (NNW) 16:00:09 145.800 FM
ITAMSAT 1 23 Apr 15:54:27 15:57:52 18° 269° (W) 16:01:17 435.822 SSB
UOSAT-12 23 Apr 15:54:57 15:56:28 12° 107° (ESE) 15:57:59 437.025 FM, 437.400 FM
Gurwin Techsat 1B 23 Apr 16:00:48 16:05:53 45° 261° (W) 16:10:59 435.225 FM
RS-15 23 Apr 16:14:10 16:25:02 72° 241° (WSW) 16:36:11 29.354 - 29.394 USB, Beacon 29.352 USB
OPAL 23 Apr 16:41:35 16:46:46 65° 290° (WNW) 16:51:55 ?
TMSAT-1 23 Apr 16:47:04 16:51:23 25° 267° (W) 16:55:44 436.925 FM
Saudisat 1A 23 Apr 17:07:36 17:09:14 12° 29° (NNE) 17:10:52 436.775 MHz
Uosat F 23 Apr 17:15:05 17:19:35 33° 263° (W) 17:24:07 435.120 FM
SO-50 23 Apr 17:17:28 17:20:06 15° 327° (NNW) 17:22:47 436.795 FM
JAS-1B 23 Apr 17:20:23 17:27:15 34° 263° (W) 17:33:12 435.800 - 435.900 CW/SSB
AO-7 23 Apr 17:26:36 17:34:39 55° 258° (WSW) 17:42:45 29.400 - 29.500 MHz
UOSAT-12 23 Apr 17:31:17 17:35:52 88° 305° (NW) 17:40:34 437.025 FM, 437.400 FM
ISS 23 Apr 17:31:31 17:34:16 23° 359° (N) 17:37:01 145.800 FM
OPAL 23 Apr 18:23:35 18:24:40 11° 309° (NW) 18:25:45 ?
RS-15 23 Apr 18:29:14 18:35:19 17° 263° (W) 18:41:31 29.354 - 29.394 USB, Beacon 29.352 USB
SO-67 23 Apr 18:32:12 18:33:23 11° 64° (ENE) 18:34:33 435.3500 MHz FM
Hamsat 23 Apr 18:35:56 18:40:09 79° 76° (ENE) 18:44:26 145.90 MHz
Saudisat 1A 23 Apr 18:45:31 18:49:52 53° 50° (NE) 18:54:09 436.775 MHz
JAS-2 23 Apr 19:04:14 19:09:40 55° 71° (ENE) 19:14:45 435.800 - 435.900 CW/SSB, 435.910 FM
ISS 23 Apr 19:08:30 19:11:38 35° 19° (NNE) 19:14:46 145.800 FM
UOSAT-12 23 Apr 19:13:36 19:16:43 18° 325° (NW) 19:19:52 437.025 FM, 437.400 FM
STRAND 1 23 Apr 19:27:26 19:32:06 35° 97° (E) 19:36:44 ?
SO-67 23 Apr 20:02:42 20:06:06 51° 261° (W) 20:09:32 435.3500 MHz FM
Saudisat 1A 23 Apr 20:25:59 20:29:05 19° 248° (WSW) 20:32:10 436.775 MHz
HO-68 23 Apr 20:37:44 20:44:21 43° 63° (ENE) 20:51:00 435.675 MHz FM
ISS 23 Apr 20:45:12 20:48:26 47° 217° (SW) 20:51:40 145.800 FM
JAS-2 23 Apr 20:51:08 20:55:07 20° 267° (W) 20:58:56 435.800 - 435.900 CW/SSB, 435.910 FM
MaSat-1 23 Apr 21:05:41 21:08:23 50° 115° (ESE) 21:10:51 437.345 MHz
STRAND 1 23 Apr 21:06:46 21:11:13 31° 294° (WNW) 21:15:40 ?
Oscar 11 23 Apr 22:02:46 22:07:03 69° 74° (ENE) 22:11:22 145.825 FM, Beacon 2401.500 USB
FUNcube-1 23 Apr 22:08:08 22:11:33 25° 67° (ENE) 22:14:59 145.950 - 145.970 MHz USB
SO-50 23 Apr 22:24:21 22:28:11 25° 41° (NE) 22:32:03 436.795 FM
HO-68 23 Apr 22:25:25 22:32:03 41° 262° (W) 22:38:45 435.675 MHz FM
Sapphire 23 Apr 22:47:48 22:49:37 12° 102° (ESE) 22:51:25 437.095 MHz 1200 baud AX-25 AFSK
PCSat 23 Apr 23:28:52 23:33:30 30° 110° (ESE) 23:38:10 145.825 MHz
Oscar 11 23 Apr 23:42:11 23:43:44 12° 271° (W) 23:45:16 145.825 FM, Beacon 2401.500 USB
FUNcube-1 23 Apr 23:44:14 23:47:54 29° 264° (W) 23:51:34 145.950 - 145.970 MHz USB
